When you browse on this site, cookies collect data to enhance your experience and personalize the content and advertising you see.
Visit our Privacy Policy to learn more. By continuing to use the site, you agree to this use of cookies and data.
  • In Deutschland
  • Länderverzeichnis
  • Für 7 Tage
  • Wassertemperatur
  • Satellitenkarten
  • Wetterkarte
  • Widgets
  • user-avatar
    Anmelden

    Stündliche Wetter Natyahailivka

    Heute, 19 November, Montag

    Zeit Temperatur Niederschläge Wind Luftdruck Luftfeuchtigkeit
    00:00 -2°C° 0 mm 1 m/S 758 mmHg 72%
    01:00 -2°C° 0 mm 1 m/S 758 mmHg 72%
    02:00 -2°C° 0 mm 1 m/S 758 mmHg 73%
    03:00 -2°C° 0 mm 1 m/S 758 mmHg 73%
    04:00 -5°C° 0 mm 2 m/S 758 mmHg 73%
    05:00 -5°C° 0 mm 2 m/S 758 mmHg 73%
    06:00 -4°C° 0 mm 2 m/S 758 mmHg 72%
    07:00 -4°C° 0 mm 2 m/S 758 mmHg 71%
    08:00 -4°C° 0 mm 2 m/S 758 mmHg 70%
    09:00 -4°C° 0 mm 3 m/S 758 mmHg 66%
    10:00 -2°C° 0 mm 3 m/S 758 mmHg 63%
    11:00 -1°C° 0 mm 3 m/S 758 mmHg 59%
    12:00 -1°C° 0 mm 3 m/S 758 mmHg 59%
    13:00 0°C° 0 mm 3 m/S 758 mmHg 58%
    14:00 -1°C° 0 mm 4 m/S 758 mmHg 58%
    15:00 -2°C° 0 mm 4 m/S 757 mmHg 59%
    16:00 -2°C° 0 mm 4 m/S 757 mmHg 59%
    17:00 -2°C° 0 mm 4 m/S 757 mmHg 60%
    18:00 -2°C° 0 mm 4 m/S 757 mmHg 59%
    19:00 -2°C° 0 mm 4 m/S 757 mmHg 59%
    20:00 -2°C° 0 mm 4 m/S 757 mmHg 58%
    21:00 -2°C° 0 mm 4 m/S 757 mmHg 59%
    22:00 -4°C° 0 mm 5 m/S 757 mmHg 60%
    23:00 -4°C° 0 mm 5 m/S 757 mmHg 61%

    Morgen, 20 November, Dienstag

    Zeit Temperatur Niederschläge Wind Luftdruck Luftfeuchtigkeit
    00:00 -4°C° 0.1 mm 5 m/S 757 mmHg 62%
    01:00 -4°C° 0.1 mm 5 m/S 757 mmHg 63%
    02:00 -4°C° 0.1 mm 5 m/S 757 mmHg 64%
    03:00 -4°C° 0.1 mm 5 m/S 757 mmHg 65%
    04:00 -4°C° 0.1 mm 5 m/S 757 mmHg 66%
    05:00 -5°C° 0.1 mm 5 m/S 757 mmHg 67%
    06:00 -5°C° 0 mm 5 m/S 757 mmHg 68%
    07:00 -5°C° 0 mm 5 m/S 757 mmHg 69%
    08:00 -5°C° 0 mm 5 m/S 758 mmHg 70%
    09:00 -4°C° 0 mm 5 m/S 758 mmHg 70%
    10:00 -2°C° 0 mm 5 m/S 758 mmHg 69%
    11:00 -1°C° 0 mm 5 m/S 758 mmHg 69%
    12:00 -1°C° 0 mm 4 m/S 758 mmHg 70%
    13:00 -1°C° 0 mm 4 m/S 758 mmHg 71%
    14:00 -1°C° 0 mm 4 m/S 758 mmHg 73%
    15:00 -2°C° 0 mm 4 m/S 758 mmHg 78%
    16:00 -3°C° 0 mm 4 m/S 758 mmHg 82%
    17:00 -3°C° 0 mm 4 m/S 758 mmHg 87%
    18:00 -4°C° 0 mm 4 m/S 758 mmHg 89%
    19:00 -4°C° 0 mm 4 m/S 758 mmHg 90%
    20:00 -4°C° 0 mm 3 m/S 758 mmHg 91%
    21:00 -5°C° 0 mm 3 m/S 759 mmHg 92%
    22:00 -5°C° 0 mm 3 m/S 759 mmHg 92%
    23:00 -4°C° 0 mm 2 m/S 759 mmHg 93%

    übermorgen, 21 November, Mittwoch

    Zeit Temperatur Niederschläge Wind Luftdruck Luftfeuchtigkeit
    00:00 -4°C° 0 mm 2 m/S 759 mmHg 93%
    01:00 -4°C° 0 mm 2 m/S 759 mmHg 93%
    02:00 -4°C° 0 mm 2 m/S 759 mmHg 93%
    03:00 -4°C° 0 mm 2 m/S 759 mmHg 93%
    04:00 -4°C° 0 mm 2 m/S 759 mmHg 93%
    05:00 -6°C° 0 mm 3 m/S 758 mmHg 94%
    06:00 -6°C° 0 mm 3 m/S 758 mmHg 93%
    07:00 -5°C° 0 mm 3 m/S 759 mmHg 93%
    08:00 -5°C° 0 mm 3 m/S 759 mmHg 93%
    09:00 -4°C° 0 mm 3 m/S 759 mmHg 88%
    10:00 -2°C° 0 mm 3 m/S 759 mmHg 83%
    11:00 -1°C° 0 mm 3 m/S 759 mmHg 78%
    12:00 -1°C° 0 mm 3 m/S 758 mmHg 76%
    13:00 -1°C° 0 mm 3 m/S 758 mmHg 75%
    14:00 0°C° 0 mm 3 m/S 758 mmHg 74%
    15:00 -1°C° 0 mm 3 m/S 758 mmHg 78%
    16:00 -2°C° 0 mm 3 m/S 758 mmHg 82%
    17:00 -4°C° 0 mm 3 m/S 758 mmHg 86%
    18:00 -5°C° 0 mm 3 m/S 758 mmHg 86%
    19:00 -5°C° 0 mm 3 m/S 758 mmHg 87%
    20:00 -5°C° 0 mm 3 m/S 758 mmHg 87%
    21:00 -4°C° 0 mm 2 m/S 759 mmHg 88%
    22:00 -4°C° 0 mm 2 m/S 759 mmHg 88%
    23:00 -4°C° 0 mm 2 m/S 759 mmHg 89%

    22 November, Donnerstag

    Zeit Temperatur Niederschläge Wind Luftdruck Luftfeuchtigkeit
    00:00 -4°C° 0 mm 2 m/S 759 mmHg 90%
    01:00 -5°C° 0 mm 2 m/S 759 mmHg 91%
    02:00 -5°C° 0 mm 2 m/S 759 mmHg 92%
    03:00 -5°C° 0 mm 2 m/S 759 mmHg 93%
    04:00 -6°C° 0 mm 3 m/S 759 mmHg 94%
    05:00 -6°C° 0 mm 3 m/S 759 mmHg 95%
    06:00 -6°C° 0 mm 3 m/S 759 mmHg 94%
    07:00 -6°C° 0 mm 3 m/S 759 mmHg 94%
    08:00 -6°C° 0 mm 3 m/S 759 mmHg 93%
    09:00 -5°C° 0 mm 3 m/S 760 mmHg 87%
    10:00 -4°C° 0 mm 3 m/S 760 mmHg 80%
    11:00 -2°C° 0 mm 3 m/S 760 mmHg 73%
    12:00 -2°C° 0 mm 3 m/S 760 mmHg 72%
    13:00 -2°C° 0 mm 3 m/S 759 mmHg 71%
    14:00 -2°C° 0 mm 3 m/S 759 mmHg 70%
    15:00 -2°C° 0 mm 3 m/S 759 mmHg 75%
    16:00 -4°C° 0 mm 3 m/S 759 mmHg 80%
    17:00 -5°C° 0 mm 3 m/S 759 mmHg 85%
    18:00 -5°C° 0 mm 3 m/S 760 mmHg 86%
    19:00 -5°C° 0 mm 3 m/S 760 mmHg 86%
    20:00 -5°C° 0 mm 3 m/S 760 mmHg 87%
    21:00 -5°C° 0 mm 4 m/S 760 mmHg 87%
    22:00 -5°C° 0 mm 4 m/S 760 mmHg 88%
    23:00 -7°C° 0 mm 4 m/S 760 mmHg 88%

    23 November, Freitag

    Zeit Temperatur Niederschläge Wind Luftdruck Luftfeuchtigkeit
    00:00 -7°C° 0 mm 4 m/S 760 mmHg 89%
    01:00 -7°C° 0 mm 4 m/S 760 mmHg 90%
    02:00 -7°C° 0 mm 4 m/S 760 mmHg 91%
    03:00 -7°C° 0 mm 4 m/S 761 mmHg 92%
    04:00 -7°C° 0 mm 4 m/S 761 mmHg 92%
    05:00 -6°C° 0 mm 3 m/S 761 mmHg 93%
    06:00 -6°C° 0 mm 3 m/S 761 mmHg 91%
    07:00 -6°C° 0 mm 3 m/S 762 mmHg 90%
    08:00 -6°C° 0 mm 3 m/S 762 mmHg 88%
    09:00 -5°C° 0 mm 3 m/S 763 mmHg 85%
    10:00 -3°C° 0 mm 2 m/S 763 mmHg 82%
    11:00 -2°C° 0 mm 2 m/S 763 mmHg 78%
    12:00 -2°C° 0 mm 2 m/S 763 mmHg 77%
    13:00 0°C° 0 mm 1 m/S 763 mmHg 77%
    14:00 0°C° 0 mm 1 m/S 763 mmHg 76%
    15:00 0°C° 0 mm 1 m/S 763 mmHg 78%
    16:00 -1°C° 0 mm 0 m/S 764 mmHg 81%
    17:00 -2°C° 0 mm 0 m/S 764 mmHg 84%
    18:00 -2°C° 0 mm 0 m/S 764 mmHg 85%
    19:00 -2°C° 0 mm 0 m/S 764 mmHg 86%
    20:00 -2°C° 0 mm 0 m/S 764 mmHg 87%
    21:00 -2°C° 0 mm 1 m/S 764 mmHg 88%
    22:00 -2°C° 0 mm 1 m/S 764 mmHg 88%
    23:00 -2°C° 0 mm 1 m/S 764 mmHg 89%

    24 November, Samstag

    Zeit Temperatur Niederschläge Wind Luftdruck Luftfeuchtigkeit
    00:00 -4°C° 0 mm 2 m/S 763 mmHg 90%
    01:00 -4°C° 0 mm 2 m/S 763 mmHg 91%
    02:00 -5°C° 0 mm 2 m/S 763 mmHg 92%
    03:00 -5°C° 0 mm 2 m/S 763 mmHg 92%
    04:00 -5°C° 0 mm 2 m/S 762 mmHg 92%
    05:00 -5°C° 0 mm 2 m/S 762 mmHg 92%
    06:00 -5°C° 0 mm 2 m/S 762 mmHg 92%
    07:00 -5°C° 0 mm 2 m/S 762 mmHg 92%
    08:00 -5°C° 0 mm 2 m/S 762 mmHg 92%
    09:00 -4°C° 0 mm 2 m/S 761 mmHg 87%
    10:00 -3°C° 0 mm 2 m/S 761 mmHg 82%
    11:00 -2°C° 0 mm 2 m/S 761 mmHg 78%
    12:00 -2°C° 0 mm 2 m/S 760 mmHg 76%
    13:00 -2°C° 0 mm 2 m/S 760 mmHg 75%
    14:00 -1°C° 0 mm 2 m/S 760 mmHg 74%
    15:00 -2°C° 0 mm 2 m/S 759 mmHg 78%
    16:00 -3°C° 0 mm 2 m/S 759 mmHg 82%
    17:00 -4°C° 0 mm 2 m/S 759 mmHg 87%
    18:00 -4°C° 0 mm 2 m/S 759 mmHg 87%
    19:00 -4°C° 0 mm 2 m/S 759 mmHg 88%
    20:00 -4°C° 0 mm 2 m/S 758 mmHg 88%
    21:00 -4°C° 0 mm 2 m/S 758 mmHg 88%
    22:00 -5°C° 0 mm 2 m/S 758 mmHg 87%
    23:00 -5°C° 0 mm 2 m/S 758 mmHg 87%
    Mehr zeigen